Location: Home
(40.5300°N, 105.0300°W)
Time: 11:53:54
(UTC-07:00)

STARLINK-2712 - Pass Details

Date: 23 October 2021
Orbit: 546 x 548 km, 53.1° (Epoch: 01 December)

Event Time Altitude Azimuth Distance (km) Brightness Sun altitude
Rises 06:31:06 0° 212° (SSW) 2,691 6.9 -10.0°
Reaches altitude 10° 06:33:23 10° 206° (SSW) 1,803 6.1 -9.6°
Maximum altitude 06:37:16 43° 134° (SE) 772 4.9 -8.8°
Drops below altitude 10° 06:41:11 10° 63° (ENE) 1,815 7.2 -8.1°
Sets 06:43:29 0° 56° (ENE) 2,712 8.0 -7.7°
